User: anonymous   Login
Location: Unspecified
(0.0000°N, 0.0000°E)
Time: 00:18:31
(UTC+00:00)
Language:

STSS DEMO 1 (USA 208) - Orbit

View from above orbital plane
View from above orbital plane
View from above satellite
View from above satellite

Ground track
Ground track

The orbit data is extracted from the following two-line orbital elements,

1 35937U 09052A   16033.75760071 0.00000000  00000-0  00000-0 0    02
2 35937  57.9997 296.9456 0017464 141.7559 218.2440 12.79169613    06
Epoch (UTC): 02 February 2016 18:10:56
Eccentricity: 0.0017464
inclination: 57.9997°
perigee height: 1331 km
apogee height: 1358 km
right ascension of ascending node: 296.9456°
argument of perigee: 141.7559°
revolutions per day: 12.79169613
mean anomaly at epoch: 218.2440°
orbit number at epoch: 0

The dashed part of the orbit path shows where the satellite is in the earth's shadow,  

DLR